{"data":{"norad_id":65479,"intl_designator":"2025-195X","name":"STARLINK-35096","alt_names":[],"object_type":"PAYLOAD","status":"ACTIVE","operator":null,"country":"US","launch_date":"2025-09-03","launch_site_code":"AFETR","launch_vehicle":null,"mission":null,"orbit_class":"UNKNOWN","rcs_meters":null,"size_class":null,"mass_kg":null,"dimensions":null,"purposes":["comms"],"wikipedia_slug":null,"has_3d_model":false,"image_url":null,"decayed_at":null,"tle_current":{"epoch":"2026-09-20T21:39:36.235008Z","epoch_age_seconds":77277,"freshness":"FRESH","line1":"1 65479U 25195X   26263.90250272  .00012632  00000+0  41770-3 0  9994","line2":"2 65479  53.1588  69.8711 0001431  89.4823 270.6342 15.31732406 59884","mean_motion":15.31732406,"eccentricity":0.0001431,"inclination_deg":53.1588,"raan_deg":69.8711,"arg_perigee_deg":89.4823,"mean_anomaly_deg":270.6342,"bstar":0.0004177,"rev_number":5988,"period_min":94.01119897701,"perigee_km":469.66333585431,"apogee_km":471.62345680374,"semimajor_km":6848.780396329,"source":"CELESTRAK","updated_at":"2026-09-21T09:00:35.639251Z"}}}